FW8343 Weather Reports


time (UTC)temp
F
wind
direction
speed
knots
gust
knots
rain 1hr
in
rain 24hr
in
rain mn
in
humidity
%
barometer
mb
20260903200520 80 0 0.0 4.3 0.00 0.00 0.00 74 1013.4
20260903200033 80 171 1.7 4.3 0.00 0.00 0.00 74 1013.5
20260903195520 80 151 1.7 3.5 0.00 0.00 0.00 74 1013.5
20260903195018 80 0 0.9 2.6 0.00 0.00 0.00 73 1013.6
20260903194546 80 0 0.0 1.7 0.00 0.00 0.00 76 1013.5
20260903194027 79 147 0.0 2.6 0.00 0.00 0.00 75 1013.4
20260903193518 79 0 0.0 2.6 0.00 0.00 0.00 79 1013.4
20260903193038 79 147 0.0 2.6 0.00 0.00 0.00 78 1013.5
20260903192519 79 0 0.0 0.0 0.00 0.00 0.00 79 1013.6
20260903192021 78 0 0.0 1.7 0.00 0.00 0.00 82 1013.7
20260903191535 78 0 0.0 1.7 0.00 0.00 0.00 81 1013.6
20260903191021 78 147 0.0 3.5 0.00 0.00 0.00 82 1013.7
20260903190521 77 147 0.9 4.3 0.00 0.00 0.00 81 1013.6
20260903190034 77 161 0.9 6.1 0.00 0.00 0.00 82 1013.7
20260903185522 77 154 0.9 6.1 0.00 0.00 0.00 81 1013.8
20260903185019 77 178 1.7 4.3 0.00 0.00 0.00 80 1013.8
20260903184536 77 0 1.7 4.3 0.00 0.00 0.00 80 1013.8
20260903184018 77 0 0.0 1.7 0.00 0.00 0.00 81 1013.9
20260903183518 77 0 0.0 2.6 0.00 0.00 0.00 81 1013.9
20260903183034 77 153 0.0 4.3 0.00 0.00 0.00 79 1014.0
20260903182522 77 140 1.7 4.3 0.00 0.00 0.00 79 1014.0
20260903182020 76 146 1.7 4.3 0.00 0.00 0.00 81 1013.9
20260903181534 76 146 1.7 4.3 0.00 0.00 0.00 81 1013.9
20260903181020 76 150 1.7 5.2 0.00 0.00 0.00 81 1014.0
20260903180521 76 0 1.7 5.2 0.00 0.00 0.00 82 1014.0
20260903180036 76 0 0.0 1.7 0.00 0.00 0.00 82 1014.1
20260903175520 76 0 0.0 1.7 0.00 0.00 0.00 81 1014.3
20260903175020 76 0 0.0 3.5 0.00 0.00 0.00 83 1014.3
20260903174535 76 136 0.0 3.5 0.00 0.00 0.00 82 1014.5
20260903174017 76 0 0.0 0.9 0.00 0.00 0.00 82 1014.3
20260903173515 76 89 0.0 0.0 0.00 0.00 0.00 84 1014.3
20260903173034 76 0 0.0 0.0 0.00 0.00 0.00 82 1014.4
20260903172520 75 0 0.0 2.6 0.00 0.00 0.00 83 1014.4
20260903172022 75 0 0.0 2.6 0.00 0.00 0.00 83 1014.5
20260903171535 75 146 0.0 2.6 0.00 0.00 0.00 83 1014.5
20260903171019 75 0 0.9 2.6 0.00 0.00 0.00 82 1014.6
20260903170524 74 151 0.0 4.3 0.00 0.00 0.00 83 1014.6
20260903170036 74 0 0.0 4.3 0.00 0.00 0.00 84 1014.6
20260903165523 74 155 1.7 4.3 0.00 0.00 0.00 83 1014.7
20260903165019 74 0 0.0 4.3 0.00 0.00 0.00 84 1014.8
20260903164538 74 150 0.9 2.6 0.00 0.00 0.00 83 1014.7
20260903164018 74 0 0.0 4.3 0.00 0.00 0.00 84 1014.7
20260903163516 73 0 0.0 4.3 0.00 0.00 0.00 85 1014.8
20260903163034 73 0 0.0 2.6 0.00 0.00 0.00 87 1014.8
20260903162521 72 0 0.0 4.3 0.00 0.00 0.00 90 1014.8
20260903162022 71 0 0.0 4.3 0.00 0.00 0.00 89 1014.9
20260903161539 71 0 0.0 3.5 0.00 0.00 0.00 91 1014.8
20260903161019 70 0 0.0 3.5 0.00 0.00 0.00 92 1014.9
20260903160520 69 0 0.0 3.5 0.00 0.00 0.00 93 1015.0
20260903160036 69 161 0.0 3.5 0.00 0.00 0.00 92 1015.0
20260903155522 69 134 0.9 2.6 0.00 0.00 0.00 92 1015.0
20260903155019 68 0 0.0 1.7 0.00 0.00 0.00 94 1014.8
20260903154534 68 0 0.0 1.7 0.00 0.00 0.00 92 1015.0
20260903154016 67 0 0.0 1.7 0.00 0.00 0.00 93 1015.0
20260903153520 67 0 0.0 0.0 0.00 0.00 0.00 92 1015.0
20260903153034 67 0 0.0 0.9 0.00 0.00 0.00 93 1015.1
20260903152521 67 0 0.0 0.9 0.00 0.00 0.00 93 1015.2
20260903152022 66 0 0.0 0.9 0.00 0.00 0.00 95 1015.2
20260903151536 65 0 0.0 0.9 0.00 0.00 0.00 94 1015.2
20260903151020 65 0 0.0 2.6 0.00 0.00 0.00 94 1015.3
20260903150520 65 0 0.0 2.6 0.00 0.00 0.00 93 1015.3
20260903150047 65 0 0.0 2.6 0.00 0.00 0.00 92 1015.4
20260903145519 65 0 0.0 5.2 0.00 0.00 0.00 93 1015.4
20260903145019 65 0 0.0 5.2 0.00 0.00 0.00 93 1015.5
20260903144541 65 148 2.6 4.3 0.00 0.00 0.00 92 1015.6
20260903144016 65 0 0.0 0.0 0.00 0.00 0.00 93 1015.5
20260903143521 65 0 0.0 0.0 0.00 0.00 0.00 92 1015.6
20260903143042 65 0 0.0 4.3 0.00 0.00 0.00 91 1015.6
20260903142520 65 0 0.9 4.3 0.00 0.00 0.00 90 1015.5
20260903142020 65 0 0.0 3.5 0.00 0.00 0.00 89 1015.4
20260903141537 66 153 0.0 3.5 0.00 0.00 0.00 88 1015.5
20260903141021 66 0 0.0 3.5 0.00 0.00 0.00 87 1015.5
20260903140521 66 0 0.0 4.3 0.00 0.00 0.00 87 1015.8
20260903140040 66 125 1.7 4.3 0.00 0.00 0.00 87 1015.8
20260903135519 66 0 0.0 2.6 0.00 0.00 0.00 87 1015.7
20260903135019 66 0 0.0 2.6 0.00 0.00 0.00 88 1015.7
20260903134547 66 0 0.0 0.9 0.00 0.00 0.00 88 1015.4
20260903134021 65 0 0.0 0.0 0.00 0.00 0.00 87 1015.5
20260903133518 65 0 0.0 0.0 0.00 0.00 0.00 87 1015.4
20260903133038 65 0 0.0 0.9 0.00 0.00 0.00 87 1015.4
20260903132519 65 0 0.0 0.9 0.00 0.00 0.00 88 1015.2
20260903132020 65 167 0.0 0.9 0.00 0.00 0.00 88 1015.4
20260903131534 65 0 0.0 0.9 0.00 0.00 0.00 88 1015.4
20260903131020 64 0 0.0 0.9 0.00 0.00 0.00 89 1015.5
20260903130523 64 167 0.0 0.9 0.00 0.00 0.00 89 1015.6
20260903130033 64 0 0.0 4.3 0.00 0.00 0.00 89 1015.6
20260903125519 64 0 0.0 4.3 0.00 0.00 0.00 89 1015.6
20260903125016 64 167 0.9 4.3 0.00 0.00 0.00 92 1015.6
20260903124535 63 0 0.0 2.6 0.00 0.00 0.00 91 1015.5
20260903124017 62 0 0.0 3.5 0.00 0.00 0.00 92 1015.3
20260903123522 62 0 0.0 3.5 0.00 0.00 0.00 92 1015.3
20260903123034 61 0 0.0 0.0 0.00 0.00 0.00 91 1015.2
20260903122520 61 0 0.0 0.9 0.00 0.00 0.00 91 1015.3
20260903122020 61 0 0.0 0.9 0.00 0.00 0.00 91 1015.3
20260903121532 61 0 0.0 0.0 0.00 0.00 0.00 90 1015.3
20260903121019 61 0 0.0 2.6 0.00 0.00 0.00 89 1015.3
20260903120519 61 0 0.0 2.6 0.00 0.00 0.00 90 1015.3
20260903120039 61 0 0.0 0.0 0.00 0.00 0.00 89 1015.2
20260903115518 62 0 0.0 0.0 0.00 0.00 0.00 88 1015.2
20260903115018 62 0 0.0 0.0 0.00 0.00 0.00 88 1015.2
20260903114536 62 0 0.0 1.7 0.00 0.00 0.00 87 1015.2
20260903114021 63 0 0.0 2.6 0.00 0.00 0.00 89 1015.2
20260903113520 63 0 0.0 2.6 0.00 0.00 0.00 89 1015.2
20260903113036 63 0 0.0 2.6 0.00 0.00 0.00 89 1015.2
20260903112525 63 0 0.0 0.9 0.00 0.00 0.00 89 1015.2
20260903112020 62 0 0.0 2.6 0.00 0.00 0.00 88 1015.0
20260903111536 62 0 0.0 2.6 0.00 0.00 0.00 91 1015.0
20260903111019 62 155 0.0 2.6 0.00 0.00 0.00 92 1015.0
20260903110522 61 0 0.0 2.6 0.00 0.00 0.00 91 1014.9
20260903110033 61 0 0.0 2.6 0.00 0.00 0.00 90 1014.8
20260903105516 61 0 0.0 1.7 0.00 0.00 0.00 89 1014.9
20260903105019 61 0 0.0 0.9 0.00 0.00 0.00 87 1014.9
20260903104534 61 0 0.0 0.0 0.00 0.00 0.00 87 1014.6
20260903104021 61 0 0.0 0.0 0.00 0.00 0.00 86 1014.5
20260903103520 62 0 0.0 0.0 0.00 0.00 0.00 85 1014.6
20260903103037 62 0 0.0 1.7 0.00 0.00 0.00 84 1014.7
20260903102521 63 0 0.0 1.7 0.00 0.00 0.00 83 1014.7
20260903102020 64 0 0.0 1.7 0.00 0.00 0.00 86 1015.0
20260903101539 63 0 0.0 1.7 0.00 0.00 0.00 85 1015.1
20260903101018 63 0 0.0 2.6 0.00 0.00 0.00 84 1015.1
20260903100518 63 0 0.0 2.6 0.00 0.00 0.00 86 1015.0
20260903100033 63 0 0.0 1.7 0.00 0.00 0.00 86 1015.1
20260903095520 63 0 0.0 1.7 0.00 0.00 0.00 87 1015.1
20260903095016 62 0 0.0 1.7 0.00 0.00 0.00 89 1014.9
20260903094541 61 0 0.0 1.7 0.00 0.00 0.00 88 1014.9
20260903094021 61 0 0.0 1.7 0.00 0.00 0.00 87 1014.9
20260903093521 61 0 0.0 0.9 0.00 0.00 0.00 85 1014.9
20260903093049 61 0 0.0 0.9 0.00 0.00 0.00 85 1014.6
20260903092524 61 0 0.0 0.9 0.00 0.00 0.00 85 1014.6
20260903092021 62 0 0.0 0.0 0.00 0.00 0.00 84 1014.5
20260903091536 62 0 0.0 1.7 0.00 0.00 0.00 84 1014.7
20260903091019 62 0 0.0 1.7 0.00 0.00 0.00 83 1014.6
20260903090518 63 0 0.0 0.0 0.00 0.00 0.00 83 1014.6
20260903090037 63 0 0.0 0.0 0.00 0.00 0.00 83 1014.6
20260903085516 63 0 0.0 4.3 0.00 0.00 0.00 84 1014.6
20260903085016 63 0 0.0 4.3 0.00 0.00 0.00 87 1014.7
20260903084536 61 150 1.7 4.3 0.00 0.00 0.00 91 1014.7
20260903084021 60 0 0.0 0.0 0.00 0.00 0.00 87 1014.8
20260903083521 60 0 0.0 0.0 0.00 0.00 0.00 87 1014.9
20260903083034 60 0 0.0 0.0 0.00 0.00 0.00 87 1014.9
20260903082520 60 0 0.0 0.0 0.00 0.00 0.00 86 1014.7
20260903082020 61 0 0.0 0.0 0.00 0.00 0.00 86 1014.8
20260903081541 61 0 0.0 0.0 0.00 0.00 0.00 86 1014.9
20260903081017 61 0 0.0 0.0 0.00 0.00 0.00 85 1014.9
20260903080520 61 0 0.0 0.0 0.00 0.00 0.00 85 1014.9
20260903080035 61 0 0.0 0.0 0.00 0.00 0.00 85 1015.0
20260903075523 61 0 0.0 0.0 0.00 0.00 0.00 85 1015.0
20260903075019 61 0 0.0 1.7 0.00 0.00 0.00 85 1014.9
20260903074536 61 0 0.0 1.7 0.00 0.00 0.00 85 1015.1
20260903074019 61 0 0.0 0.0 0.00 0.00 0.00 85 1015.0
20260903073517 61 0 0.0 0.0 0.00 0.00 0.00 85 1014.9
20260903073036 61 0 0.0 0.0 0.00 0.00 0.00 84 1014.9
20260903072518 61 0 0.0 0.0 0.00 0.00 0.00 84 1014.8
20260903072019 62 0 0.0 0.0 0.00 0.00 0.00 84 1015.0
20260903071534 62 0 0.0 0.0 0.00 0.00 0.00 83 1015.0
20260903071020 62 0 0.0 0.0 0.00 0.00 0.00 83 1015.0
20260903070519 62 0 0.0 0.0 0.00 0.00 0.00 83 1015.2
20260903070036 62 0 0.0 0.9 0.00 0.00 0.00 82 1015.2
20260903065520 62 0 0.0 0.9 0.00 0.00 0.00 82 1015.2
20260903065023 63 0 0.0 0.9 0.00 0.00 0.00 82 1015.3
20260903064534 63 0 0.0 0.0 0.00 0.00 0.00 82 1015.3
20260903064019 63 0 0.0 0.0 0.00 0.00 0.00 82 1015.4
20260903063518 63 0 0.0 0.0 0.00 0.00 0.00 82 1015.5
20260903063035 63 0 0.0 0.0 0.00 0.00 0.00 81 1015.6
20260903062522 63 0 0.0 0.0 0.00 0.00 0.00 81 1015.6
20260903062021 64 0 0.0 0.0 0.00 0.00 0.00 81 1015.5
20260903061535 64 0 0.0 0.0 0.00 0.00 0.00 81 1015.5
20260903061022 64 0 0.0 0.0 0.00 0.00 0.00 81 1015.5
20260903060519 64 0 0.0 0.0 0.00 0.00 0.00 82 1015.5
20260903060039 64 0 0.0 0.0 0.00 0.00 0.00 82 1015.5
20260903055522 64 0 0.0 0.0 0.00 0.00 0.00 81 1015.6
20260903055019 64 0 0.0 0.0 0.00 0.00 0.00 81 1015.5
20260903054536 64 0 0.0 0.0 0.00 0.00 0.00 81 1015.5
20260903054021 64 0 0.0 0.0 0.00 0.00 0.00 81 1015.5
20260903053520 64 0 0.0 0.0 0.00 0.00 0.00 81 1015.8
20260903053037 64 0 0.0 0.0 0.00 0.00 0.00 82 1015.6
20260903052519 64 0 0.0 0.0 0.00 0.00 0.00 82 1015.6
20260903052021 64 0 0.0 0.0 0.00 0.00 0.00 82 1015.6
20260903051544 64 0 0.0 0.0 0.00 0.00 0.00 82 1015.6
20260903051017 64 0 0.0 0.0 0.00 0.00 0.00 82 1015.4
20260903050516 64 0 0.0 0.0 0.00 0.00 0.00 82 1015.6
20260903050037 64 0 0.0 0.0 0.00 0.00 0.00 82 1015.4
20260903045520 64 0 0.0 0.0 0.00 0.00 0.00 82 1015.5
20260903045019 64 0 0.0 0.0 0.00 0.00 0.00 82 1015.6
20260903044536 64 0 0.0 0.9 0.00 0.00 0.00 83 1015.6
20260903044021 64 0 0.0 0.9 0.00 0.00 0.00 86 1015.7
20260903043520 63 0 0.0 0.0 0.00 0.00 0.00 83 1015.8
20260903043040 63 0 0.0 0.0 0.00 0.00 0.00 82 1015.5
20260903042521 64 0 0.0 0.0 0.00 0.00 0.00 82 1015.5
20260903042019 64 0 0.0 0.0 0.00 0.00 0.00 82 1015.4
20260903041535 64 0 0.0 0.0 0.00 0.00 0.00 82 1015.4
20260903041016 64 0 0.0 0.0 0.00 0.00 0.00 81 1015.3
20260903040519 64 0 0.0 0.0 0.00 0.00 0.00 81 1015.3
20260903040035 64 0 0.0 0.0 0.00 0.00 0.00 81 1015.2
20260903035519 65 0 0.0 0.0 0.00 0.00 0.00 81 1015.2
20260903035021 65 0 0.0 0.0 0.00 0.00 0.00 80 1015.3
20260903034536 65 0 0.0 0.0 0.00 0.00 0.00 79 1015.3
20260903034020 65 0 0.0 0.0 0.00 0.00 0.00 79 1015.3
20260903033519 65 0 0.0 0.0 0.00 0.00 0.00 79 1015.4
20260903033035 65 0 0.0 0.0 0.00 0.00 0.00 79 1015.5
20260903032521 65 0 0.0 0.0 0.00 0.00 0.00 79 1015.4
20260903032023 65 0 0.0 0.0 0.00 0.00 0.00 79 1015.5
20260903031536 65 0 0.0 0.0 0.00 0.00 0.00 79 1015.4
20260903031018 65 0 0.0 0.0 0.00 0.00 0.00 80 1015.4
20260903030524 65 0 0.0 0.0 0.00 0.00 0.00 80 1015.5
20260903030037 65 0 0.0 0.0 0.00 0.00 0.00 80 1015.4
20260903025522 65 0 0.0 0.0 0.00 0.00 0.00 80 1015.2
20260903025020 65 0 0.0 0.0 0.00 0.00 0.00 80 1015.2
20260903024532 65 0 0.0 0.0 0.00 0.00 0.00 80 1015.2
20260903024023 65 0 0.0 0.0 0.00 0.00 0.00 79 1015.2
20260903023519 66 0 0.0 0.0 0.00 0.00 0.00 79 1015.2
20260903023055 66 0 0.0 0.0 0.00 0.00 0.00 79 1015.1
20260903022521 66 0 0.0 0.0 0.00 0.00 0.00 78 1015.2
20260903022019 66 0 0.0 0.0 0.00 0.00 0.00 78 1015.2
20260903021543 66 0 0.0 0.0 0.00 0.00 0.00 78 1015.2
20260903021027 67 0 0.0 0.0 0.00 0.00 0.00 78 1015.1
20260903020521 67 0 0.0 0.0 0.00 0.00 0.00 77 1015.1
20260903020033 67 0 0.0 0.0 0.00 0.00 0.00 77 1015.1
20260903015522 68 0 0.0 0.0 0.00 0.00 0.00 76 1015.1
20260903015021 68 0 0.0 0.0 0.00 0.00 0.00 76 1015.1
20260903014535 68 0 0.0 0.0 0.00 0.00 0.00 75 1015.1
20260903014022 69 0 0.0 0.0 0.00 0.00 0.00 75 1015.0
20260903013520 69 0 0.0 0.0 0.00 0.00 0.00 74 1015.0
20260903013037 69 0 0.0 0.0 0.00 0.00 0.00 73 1014.9
20260903012516 69 0 0.0 0.0 0.00 0.00 0.00 73 1014.8
20260903012020 70 0 0.0 0.0 0.00 0.00 0.00 72 1014.8
20260903011535 70 0 0.0 0.0 0.00 0.00 0.00 72 1014.7
20260903011024 71 0 0.0 0.0 0.00 0.00 0.00 71 1014.6
20260903010522 71 0 0.0 0.0 0.00 0.00 0.00 70 1014.6
20260903010037 71 0 0.0 0.0 0.00 0.00 0.00 70 1014.6
20260903005521 72 0 0.0 0.0 0.00 0.00 0.00 70 1014.4
20260903005021 73 0 0.0 0.0 0.00 0.00 0.00 68 1014.4
20260903004535 73 0 0.0 0.0 0.00 0.00 0.00 67 1014.5
20260903004021 74 0 0.0 0.0 0.00 0.00 0.00 67 1014.4
20260903003518 74 0 0.0 0.0 0.00 0.00 0.00 66 1014.4
20260903003036 75 0 0.0 0.0 0.00 0.00 0.00 66 1014.4
20260903002516 75 0 0.0 0.0 0.00 0.00 0.00 66 1014.3
20260903002024 76 0 0.0 0.0 0.00 0.00 0.00 66 1014.3
20260903001537 76 0 0.0 0.0 0.00 0.00 0.00 65 1014.2
20260903001021 76 0 0.0 0.9 0.00 0.00 0.00 66 1014.2
20260903000521 76 0 0.0 1.7 0.00 0.00 0.00 64 1014.2
20260903000034 77 0 0.0 1.7 0.00 0.00 0.00 65 1014.2
20260902235521 77 0 0.0 0.0 0.00 0.00 0.00 64 1014.1
20260902235024 78 0 0.0 0.9 0.00 0.00 0.00 64 1014.2
20260902234539 78 0 0.0 2.6 0.00 0.00 0.00 63 1014.1
20260902234019 78 0 0.0 2.6 0.00 0.00 0.00 63 1014.1
20260902233518 78 0 0.9 2.6 0.00 0.00 0.00 60 1014.0
20260902233035 79 0 0.0 2.6 0.00 0.00 0.00 61 1014.1
20260902232522 79 0 0.0 2.6 0.00 0.00 0.00 60 1013.9
20260902232022 79 0 0.0 2.6 0.00 0.00 0.00 59 1013.9
20260902231551 79 0 0.0 2.6 0.00 0.00 0.00 61 1013.9
20260902231015 80 218 0.0 1.7 0.00 0.00 0.00 61 1013.8
20260902230521 80 0 0.0 1.7 0.00 0.00 0.00 58 1013.7
20260902230039 80 0 0.0 2.6 0.00 0.00 0.00 58 1013.8
20260902225525 80 0 0.0 2.6 0.00 0.00 0.00 59 1013.8
20260902225021 81 0 0.0 1.7 0.00 0.00 0.00 58 1013.8
20260902224535 81 0 0.0 2.6 0.00 0.00 0.00 59 1013.7
20260902224022 81 0 0.0 2.6 0.00 0.00 0.00 56 1013.7
20260902223519 81 0 0.0 2.6 0.00 0.00 0.00 55 1013.6
20260902223036 82 0 0.0 2.6 0.00 0.00 0.00 56 1013.6
20260902222519 82 0 0.0 2.6 0.00 0.00 0.00 57 1013.6
20260902222016 82 172 0.0 5.2 0.00 0.00 0.00 55 1013.5
20260902221538 82 172 0.0 5.2 0.00 0.00 0.00 54 1013.6
20260902221020 82 151 0.0 2.6 0.00 0.00 0.00 49 1013.5
20260902220521 82 0 0.0 2.6 0.00 0.00 0.00 51 1013.5
20260902220036 82 182 0.9 4.3 0.00 0.00 0.00 47 1013.4
20260902215521 82 0 0.0 4.3 0.00 0.00 0.00 50 1013.4
20260902215020 82 226 2.6 4.3 0.00 0.00 0.00 51 1013.4
20260902214544 82 349 0.0 1.7 0.00 0.00 0.00 50 1013.4
20260902214020 81 349 0.0 1.7 0.00 0.00 0.00 52 1013.5
20260902213523 81 182 0.0 1.7 0.00 0.00 0.00 48 1013.5
20260902213038 82 0 0.0 2.6 0.00 0.00 0.00 51 1013.5
20260902212519 82 182 0.9 3.5 0.00 0.00 0.00 48 1013.6
20260902212016 82 182 0.9 3.5 0.00 0.00 0.00 49 1013.6
20260902211536 82 0 0.0 3.5 0.00 0.00 0.00 49 1013.7
20260902211023 82 0 0.9 3.5 0.00 0.00 0.00 48 1013.7
20260902210521 82 229 0.9 4.3 0.00 0.00 0.00 51 1013.8
20260902210039 81 0 1.7 4.3 0.00 0.00 0.00 47 1013.7
20260902205519 81 190 0.0 3.5 0.00 0.00 0.00 53 1013.7
20260902205021 81 142 0.0 4.3 0.00 0.00 0.00 55 1013.7
20260902204536 80 221 1.7 6.1 0.00 0.00 0.00 53 1013.7
20260902204019 80 180 2.6 6.1 0.00 0.00 0.00 57 1013.8
20260902203516 80 229 0.9 4.3 0.00 0.00 0.00 54 1013.8
20260902203038 80 5 0.0 4.3 0.00 0.00 0.00 53 1013.9
20260902202518 80 0 0.0 4.3 0.00 0.00 0.00 54 1014.0
20260902202019 80 148 2.6 4.3 0.00 0.00 0.00 58 1013.9
20260902201533 80 0 0.0 2.6 0.00 0.00 0.00 53 1013.9
20260902201019 80 0 0.0 2.6 0.00 0.00 0.00 55 1013.9